EW9544 Weather Reports


time (UTC)temp
C
wind
direction
speed
KPH
gust
KPH
rain 1hr
cm
rain 24hr
cm
rain mn
cm
humidity
%
barometer
mb
20260510225714 15 253 0.0 1.6 0.00 0.00 0.00 92 1011.8
20260510225214 15 253 0.0 1.6 0.00 0.00 0.00 92 1011.6
20260510224714 15 253 0.0 1.6 0.00 0.00 0.00 92 1011.7
20260510224213 15 232 0.0 0.0 0.00 0.00 0.00 92 1011.5
20260510223713 15 232 0.0 0.0 0.00 0.00 0.00 92 1011.4
20260510223213 15 231 0.0 0.0 0.00 0.00 0.00 92 1011.4
20260510222715 14 231 0.0 1.6 0.00 0.00 0.00 92 1011.4
20260510222213 15 230 0.0 1.6 0.00 0.00 0.00 91 1011.3
20260510221712 15 227 0.0 0.0 0.00 0.00 0.00 91 1011.4
20260510221213 15 183 0.0 0.0 0.00 0.00 0.00 92 1011.3
20260510220713 15 182 0.0 0.0 0.00 0.00 0.00 92 1011.3
20260510220213 15 183 0.0 0.0 0.00 0.00 0.00 92 1011.3
20260510215711 15 183 0.0 0.0 0.00 0.00 0.00 91 1011.3
20260510215210 15 197 0.0 0.0 0.00 0.00 0.00 91 1011.3
20260510214710 15 198 0.0 0.0 0.00 0.00 0.00 91 1011.3
20260510214210 15 189 0.0 0.0 0.00 0.00 0.00 91 1011.4
20260510213711 15 192 0.0 1.6 0.00 0.00 0.00 90 1011.3
20260510213211 15 185 0.0 3.2 0.00 0.00 0.00 90 1011.2
20260510212711 15 222 0.0 3.2 0.00 0.00 0.00 89 1011.2
20260510212209 15 211 0.0 0.0 0.00 0.00 0.00 88 1011.1
20260510211709 16 211 0.0 0.0 0.00 0.00 0.00 88 1011.0
20260510211211 16 211 0.0 0.0 0.00 0.00 0.00 88 1011.0
20260510210210 16 206 0.0 1.6 0.00 0.00 0.00 88 1010.8
20260510205209 16 195 0.0 1.6 0.00 0.00 0.00 88 1010.8
20260510204709 16 196 0.0 1.6 0.00 0.00 0.00 87 1010.7
20260510204211 16 239 0.0 0.0 0.00 0.00 0.00 87 1010.8
20260510203710 16 224 0.0 0.0 0.00 0.00 0.00 87 1010.7
20260510203209 16 224 0.0 0.0 0.00 0.00 0.00 87 1010.6
20260510202711 16 224 0.0 0.0 0.00 0.00 0.00 87 1010.7
20260510202210 16 221 0.0 0.0 0.00 0.00 0.00 87 1010.7
20260510201709 16 191 0.0 0.0 0.00 0.00 0.00 87 1010.8
20260510201209 16 209 0.0 6.4 0.00 0.00 0.00 86 1010.8
20260510200210 17 260 0.0 1.6 0.00 0.00 0.00 84 1010.9
20260510195710 17 241 0.0 1.6 0.00 0.00 0.00 84 1010.8
20260510195211 17 239 0.0 1.6 0.00 0.00 0.00 84 1010.7
20260510194710 17 239 0.0 1.6 0.00 0.00 0.00 85 1010.7
20260510194209 16 241 0.0 0.0 0.00 0.00 0.00 86 1010.9
20260510193209 16 242 0.0 1.6 0.00 0.00 0.00 87 1011.0
20260510191708 15 242 0.0 3.2 0.00 0.00 0.00 88 1011.2
20260510191208 15 243 0.0 3.2 0.00 0.00 0.00 88 1011.2
20260510190707 15 241 0.0 1.6 0.00 0.00 0.00 88 1011.3
20260510185708 15 246 1.6 4.8 0.00 0.00 0.00 88 1011.5
20260510185207 15 246 1.6 4.8 0.00 0.00 0.00 88 1011.5
20260510184707 15 249 0.0 4.8 0.00 0.00 0.00 88 1011.6
20260510184205 15 245 0.0 1.6 0.00 0.00 0.00 88 1011.5
20260510183703 15 249 0.0 3.2 0.00 0.00 0.00 88 1011.5
20260510183204 15 251 0.0 3.2 0.00 0.00 0.00 87 1011.5
20260510182204 16 261 0.0 1.6 0.00 0.00 0.00 86 1011.4
20260510181704 16 256 0.0 1.6 0.00 0.00 0.00 85 1011.4
20260510181203 16 263 0.0 3.2 0.00 0.00 0.00 85 1011.4
20260510175703 16 251 0.0 4.8 0.00 0.00 0.00 86 1011.5
20260510175203 16 258 1.6 12.9 0.00 0.00 0.00 88 1011.5
20260510174701 16 262 1.6 12.9 0.00 0.00 0.00 88 1011.6
20260510174203 16 240 0.0 4.8 0.00 0.00 0.00 89 1011.5
20260510173701 15 267 0.0 6.4 0.00 0.00 0.00 90 1011.5
20260510173202 15 250 0.0 6.4 0.00 0.00 0.00 90 1011.6
20260510172203 15 253 1.6 9.7 0.00 0.00 0.00 92 1011.7
20260510171702 15 241 0.0 9.7 0.00 0.00 0.00 92 1011.7
20260510171202 15 264 0.0 3.2 0.00 0.00 0.00 93 1011.7
20260510170702 15 258 0.0 3.2 0.00 0.00 0.00 93 1011.6
20260510170200 14 173 0.0 3.2 0.00 0.00 0.00 94 1011.7
20260510164658 14 310 0.0 3.2 0.00 0.00 0.00 96 1011.8
20260510164159 14 256 0.0 3.2 0.00 0.00 0.00 96 1011.9
20260510163159 13 237 0.0 1.6 0.00 0.00 0.00 97 1012.0
20260510162659 13 269 0.0 3.2 0.00 0.00 0.00 97 1011.9
20260510162200 13 255 0.0 3.2 0.00 0.00 0.00 97 1011.8
20260510161700 13 266 0.0 3.2 0.00 0.00 0.00 97 1011.9
20260510161200 13 268 0.0 3.2 0.00 0.00 0.00 97 1012.0
20260510160657 13 285 0.0 3.2 0.00 0.00 0.00 97 1011.9
20260510160158 13 267 0.0 0.0 0.00 0.00 0.00 97 1012.0
20260510155658 13 268 0.0 1.6 0.00 0.00 0.00 97 1012.0
20260510155158 13 280 0.0 1.6 0.00 0.00 0.00 97 1012.1
20260510154658 12 266 0.0 1.6 0.00 0.00 0.00 97 1012.2
20260510154158 12 250 0.0 1.6 0.00 0.00 0.00 97 1012.1
20260510153658 12 261 0.0 1.6 0.00 0.00 0.00 97 1012.1
20260510153157 12 245 0.0 1.6 0.00 0.00 0.00 97 1012.2
20260510152656 12 359 0.0 1.6 0.00 0.00 0.00 97 1012.3
20260510151655 12 359 1.6 4.8 0.00 0.00 0.00 97 1012.3
20260510151156 12 359 1.6 6.4 0.00 0.00 0.00 97 1012.3
20260510150655 12 256 3.2 6.4 0.00 0.00 0.00 97 1012.3
20260510150156 12 243 1.6 6.4 0.00 0.00 0.00 97 1012.3
20260510145656 12 359 1.6 4.8 0.00 0.00 0.00 97 1012.4
20260510145155 11 359 1.6 4.8 0.00 0.00 0.00 97 1012.4
20260510144655 11 235 1.6 4.8 0.00 0.00 0.00 97 1012.3
20260510144156 11 359 1.6 4.8 0.00 0.00 0.00 97 1012.3
20260510143655 11 238 1.6 4.8 0.00 0.00 0.00 97 1012.2
20260510142653 11 359 0.0 1.6 0.00 0.00 0.00 97 1012.1
20260510141652 11 236 0.0 0.0 0.00 0.00 0.00 97 1011.9
20260510141153 11 237 0.0 0.0 0.00 0.00 0.00 97 1011.9
20260510140654 11 236 0.0 1.6 0.00 0.00 0.00 97 1011.9
20260510140205 11 237 0.0 1.6 0.00 0.00 0.00 97 1011.8
20260510135654 11 359 0.0 1.6 0.00 0.00 0.00 97 1011.8
20260510134652 11 235 0.0 1.6 0.00 0.00 0.00 97 1011.8
20260510134153 11 359 0.0 1.6 0.00 0.00 0.00 97 1011.8
20260510133651 11 359 0.0 1.6 0.00 0.00 0.00 97 1011.9
20260510133152 11 359 0.0 3.2 0.00 0.00 0.00 97 1011.8
20260510132650 11 224 0.0 3.2 0.00 0.00 0.00 97 1011.8
20260510132152 11 359 0.0 4.8 0.00 0.00 0.00 97 1011.8
20260510131651 11 235 0.0 4.8 0.00 0.00 0.00 97 1011.6
20260510130650 11 359 0.0 3.2 0.00 0.00 0.00 97 1011.7
20260510130152 11 359 0.0 3.2 0.00 0.00 0.00 97 1011.7
20260510125152 11 209 0.0 3.2 0.00 0.00 0.00 97 1011.6
20260510124648 11 199 0.0 1.6 0.00 0.00 0.00 97 1011.6
20260510124149 11 214 0.0 1.6 0.00 0.00 0.00 97 1011.5
20260510123649 11 209 0.0 1.6 0.00 0.00 0.00 97 1011.5
20260510123149 11 359 0.0 1.6 0.00 0.00 0.00 97 1011.4
20260510122150 11 211 0.0 1.6 0.00 0.00 0.00 97 1011.0
20260510121649 11 212 0.0 1.6 0.00 0.00 0.00 97 1011.0
20260510121148 11 193 0.0 1.6 0.00 0.00 0.00 97 1011.0
20260510114648 11 184 0.0 3.2 0.00 0.00 0.00 97 1011.0
20260510114148 11 207 0.0 3.2 0.00 0.00 0.00 97 1010.9
20260510113650 10 359 0.0 3.2 0.00 0.00 0.00 97 1010.7
20260510113150 10 214 0.0 4.8 0.00 0.00 0.00 97 1010.7
20260510112649 11 214 0.0 4.8 0.00 0.00 0.00 97 1010.8
20260510112149 11 220 0.0 1.6 0.00 0.00 0.00 97 1010.7
20260510111649 11 359 0.0 0.0 0.00 0.00 0.00 97 1010.7
20260510111149 11 205 0.0 0.0 0.00 0.00 0.00 97 1010.6
20260510110648 11 359 0.0 3.2 0.00 0.00 0.00 97 1010.7
20260510110148 10 209 0.0 3.2 0.00 0.00 0.00 97 1010.6
20260510105648 11 359 0.0 3.2 0.00 0.00 0.00 97 1010.5
20260510104649 11 228 0.0 3.2 0.00 0.00 0.00 97 1010.6
20260510104148 11 228 0.0 3.2 0.00 0.00 0.00 97 1010.7
20260510103148 11 233 1.6 3.2 0.00 0.00 0.00 97 1010.5
20260510102649 11 232 0.0 4.8 0.00 0.00 0.00 97 1010.4
20260510102149 11 359 1.6 4.8 0.00 0.00 0.00 97 1010.5
20260510101147 11 219 1.6 4.8 0.00 0.00 0.00 97 1010.5
20260510100646 10 359 1.6 4.8 0.00 0.00 0.00 97 1010.4
20260510100146 10 222 0.0 3.2 0.00 0.00 0.00 97 1010.5
20260510095146 11 220 0.0 1.6 0.00 0.00 0.00 97 1010.8
20260510094647 10 102 0.0 0.0 0.00 0.00 0.00 97 1010.9
20260510094146 10 103 0.0 0.0 0.00 0.00 0.00 97 1010.9
20260510093647 10 103 0.0 0.0 0.00 0.00 0.00 97 1010.8
20260510093147 10 102 0.0 1.6 0.00 0.00 0.00 97 1010.8
20260510092146 10 102 0.0 3.2 0.00 0.00 0.00 97 1010.8
20260510091646 11 103 0.0 3.2 0.00 0.00 0.00 97 1010.9
20260510091146 11 108 0.0 1.6 0.00 0.00 0.00 97 1010.8
20260510090646 11 52 0.0 1.6 0.00 0.00 0.00 97 1011.0
20260510090146 11 61 0.0 1.6 0.00 0.00 0.00 97 1010.9
20260510085644 11 71 0.0 1.6 0.00 0.00 0.00 97 1010.9
20260510085145 11 54 0.0 1.6 0.00 0.00 0.00 97 1010.8
20260510084644 11 77 0.0 1.6 0.00 0.00 0.00 97 1010.8
20260510084146 11 117 0.0 1.6 0.00 0.00 0.00 97 1010.8
20260510083646 10 359 0.0 0.0 0.00 0.00 0.00 97 1010.6
20260510083144 10 125 0.0 0.0 0.00 0.00 0.00 97 1011.0
20260510082645 10 124 0.0 1.6 0.00 0.00 0.00 97 1010.7
20260510082143 10 194 0.0 1.6 0.00 0.00 0.00 97 1010.5
20260510081644 10 241 0.0 1.6 0.00 0.00 0.00 97 1010.1
20260510081144 10 212 0.0 3.2 0.00 0.00 0.00 97 1010.0
20260510080642 10 222 0.0 3.2 0.00 0.00 0.00 97 1009.9
20260510080143 10 222 0.0 3.2 0.00 0.00 0.00 97 1009.9
20260510075641 11 212 1.6 3.2 0.00 0.00 0.00 97 1009.8
20260510075143 11 209 1.6 3.2 0.00 0.00 0.00 97 1009.8
20260510074642 11 359 0.0 3.2 0.00 0.00 0.00 97 1009.9
20260510073642 11 225 0.0 1.6 0.00 0.00 0.00 96 1010.0
20260510073143 11 234 0.0 1.6 0.00 0.00 0.00 96 1010.0
20260510072643 11 216 1.6 3.2 0.00 0.00 0.00 96 1010.0
20260510071641 11 235 0.0 3.2 0.00 0.00 0.00 96 1009.9
20260510070640 11 140 0.0 0.0 0.00 0.00 0.00 97 1009.9
20260510070141 11 136 0.0 0.0 0.00 0.00 0.00 97 1010.0
20260510065641 11 138 0.0 0.0 0.00 0.00 0.00 97 1010.0
20260510064640 11 135 0.0 0.0 0.00 0.00 0.00 96 1009.9
20260510064141 11 135 0.0 0.0 0.00 0.00 0.00 96 1009.8
20260510063640 11 216 0.0 0.0 0.00 0.00 0.00 96 1009.8
20260510063139 11 214 0.0 1.6 0.00 0.00 0.00 96 1009.8
20260510062638 11 224 0.0 1.6 0.00 0.00 0.00 96 1009.7
20260510061638 11 225 0.0 0.0 0.00 0.00 0.00 96 1009.6
20260510061139 11 227 0.0 1.6 0.00 0.00 0.00 96 1009.6
20260510060138 11 231 0.0 3.2 0.00 0.00 0.00 96 1009.7
20260510055638 11 219 0.0 3.2 0.00 0.00 0.00 96 1009.7
20260510055139 11 359 0.0 1.6 0.00 0.00 0.00 96 1009.7
20260510054637 11 221 0.0 3.2 0.00 0.00 0.00 96 1009.6
20260510054138 11 227 0.0 3.2 0.00 0.00 0.00 96 1009.7
20260510053635 11 210 0.0 3.2 0.00 0.00 0.00 96 1009.8
20260510053137 11 222 0.0 3.2 0.00 0.00 0.00 96 1009.8
20260510052636 11 359 0.0 1.6 0.00 0.00 0.00 96 1009.8
20260510052136 11 359 0.0 0.0 0.00 0.00 0.00 96 1009.9
20260510051637 11 182 0.0 0.0 0.00 0.00 0.00 96 1009.9
20260510051135 11 197 0.0 0.0 0.00 0.00 0.00 96 1010.0
20260510050137 11 199 0.0 0.0 0.00 0.00 0.00 96 1010.0
20260510045635 11 196 0.0 0.0 0.00 0.00 0.00 96 1009.9
20260510044634 11 180 0.0 1.6 0.00 0.00 0.00 96 1009.8
20260510044133 11 359 0.0 0.0 0.00 0.00 0.00 96 1009.9
20260510043132 11 179 0.0 0.0 0.00 0.00 0.00 96 1009.9
20260510042632 11 119 0.0 0.0 0.00 0.00 0.00 96 1009.9
20260510042133 11 90 0.0 0.0 0.00 0.00 0.00 96 1009.8
20260510041632 11 87 0.0 0.0 0.00 0.00 0.00 96 1009.8
20260510040632 11 89 0.0 0.0 0.00 0.00 0.00 96 1009.7
20260510040132 11 89 0.0 0.0 0.00 0.00 0.00 96 1009.7
20260510035632 11 89 0.0 0.0 0.00 0.00 0.00 96 1009.5
20260510035132 11 88 0.0 0.0 0.00 0.00 0.00 95 1009.6
20260510034632 11 89 0.0 0.0 0.00 0.00 0.00 95 1009.5
20260510034132 11 88 0.0 0.0 0.00 0.00 0.00 95 1009.5
20260510033131 11 87 0.0 0.0 0.00 0.00 0.00 95 1009.4
20260510032629 11 89 0.0 0.0 0.00 0.00 0.00 95 1009.5
20260510032129 11 88 0.0 0.0 0.00 0.00 0.00 95 1009.6
20260510031628 11 89 0.0 0.0 0.00 0.00 0.00 95 1009.5
20260510031130 11 95 0.0 0.0 0.00 0.00 0.00 95 1009.4
20260510030628 11 123 0.0 0.0 0.00 0.00 0.00 95 1009.5
20260510030128 11 124 0.0 0.0 0.00 0.00 0.00 95 1009.5
20260510025129 11 122 0.0 0.0 0.00 0.00 0.00 95 1009.6
20260510024629 11 125 0.0 0.0 0.00 0.00 0.00 95 1009.6
20260510024127 11 124 0.0 0.0 0.00 0.00 0.00 95 1009.6
20260510023626 11 122 0.0 0.0 0.00 0.00 0.00 95 1009.7
20260510023127 11 122 0.0 0.0 0.00 0.00 0.00 95 1009.7
20260510022626 11 124 0.0 0.0 0.00 0.00 0.00 95 1009.7
20260510022127 11 122 0.0 0.0 0.00 0.00 0.00 95 1009.6
20260510021626 11 124 0.0 0.0 0.00 0.00 0.00 95 1009.6
20260510020626 11 122 0.0 1.6 0.00 0.00 0.00 95 1009.6
20260510020126 11 124 0.0 1.6 0.00 0.00 0.00 95 1009.5
20260510015626 11 111 0.0 1.6 0.00 0.00 0.00 95 1009.6
20260510015127 11 112 0.0 1.6 0.00 0.00 0.00 95 1009.6
20260510013624 11 207 0.0 0.0 0.00 0.00 0.00 95 1009.4
20260510013125 11 206 0.0 0.0 0.00 0.00 0.00 95 1009.4
20260510012624 11 207 0.0 0.0 0.00 0.00 0.00 95 1009.2
20260510012125 12 206 0.0 0.0 0.00 0.00 0.00 95 1009.2
20260510011624 11 207 0.0 0.0 0.00 0.00 0.00 94 1009.1
20260510010624 12 206 0.0 0.0 0.00 0.00 0.00 95 1008.9
20260510010125 12 206 0.0 0.0 0.00 0.00 0.00 94 1009.0
20260510005622 12 205 0.0 0.0 0.00 0.00 0.00 95 1009.1
20260510005123 12 359 0.0 0.0 0.00 0.00 0.00 95 1009.0
20260510004622 12 206 0.0 0.0 0.00 0.00 0.00 94 1009.0
20260510003622 12 206 0.0 0.0 0.00 0.00 0.00 94 1008.9
20260510003122 12 206 0.0 1.6 0.00 0.00 0.00 94 1008.9
20260510002122 12 359 0.0 1.6 0.00 0.00 0.00 95 1008.9
20260510001123 12 211 0.0 0.0 0.00 0.00 0.00 94 1008.9
20260510000620 12 359 0.0 0.0 0.00 0.00 0.00 94 1008.8
20260510000122 12 210 0.0 0.0 0.00 0.00 0.00 94 1008.8
20260509235620 12 210 0.0 1.6 0.00 0.00 0.00 94 1008.9
20260509235120 12 359 0.0 1.6 0.00 0.00 0.00 94 1008.9
20260509234621 12 224 0.0 1.6 0.00 0.00 0.00 94 1008.9
20260509233621 12 153 0.0 0.0 0.00 0.00 0.00 94 1009.0
20260509233121 12 153 0.0 0.0 0.00 0.00 0.00 94 1009.1
20260509232620 12 154 0.0 1.6 0.00 0.00 0.00 94 1009.0
20260509232120 12 153 0.0 3.2 0.00 0.00 0.00 94 1008.9
20260509231618 12 166 0.0 3.2 0.00 0.00 0.00 94 1008.8
20260509231119 12 359 0.0 1.6 0.00 0.00 0.00 94 1008.9
20260509230618 12 241 0.0 1.6 0.00 0.00 0.00 94 1008.8
20260509230118 12 171 0.0 1.6 0.00 0.00 0.00 94 1008.5